[[{"header":{"parameterUnit":"m.s-1","parameterCategory":1,"la1":30.2991,"la2":30.254,"lo1":-89.0895,"lo2":-89.0444,"dy":0.0017,"dx":0.0017,"nx":28,"ny":28,"refTime":"2024-11-30T03:00:00:Z","depth":0,"parameterNumber":2,"parameterNumberName":"U-component_of_WINDS"},"data":[0,0,0,0,0,0,0,0,0,0,0,0,0,0,0,0,0,0,0,0,0,0,0,0,0,0,0,0,0,0,0,0,0,0,0,0,0,0,0,0,0,0,0,0,0,0,0,0,0,0,0,0,0,0,0,0,0,0,1.2171,1.2172,0,1.2196,1.2197,1.2197,1.2212,1.2212,1.2212,1.2212,1.2239,1.224,1.224,0,0,0,0,0,0,0,0,0,0,0,0,0,1.2139,1.2139,1.2171,1.2172,1.2172,1.2196,1.2197,1.2197,1.2212,1.2212,1.2212,1.2213,1.2239,1.2239,1.224,0,0,0,0,0,0,0,0,0,0,0,0,0,1.2157,1.2139,1.2171,1.2183,1.2184,1.2196,1.2197,1.2197,1.2212,1.2212,1.2212,1.2213,1.2238,1.2239,1.224,1.2244,0,0,1.2243,1.2244,0,0,0,0,0,0,0,0,1.2156,1.2158,1.2181,1.2182,1.2183,1.2201,1.2195,1.2213,1.2212,1.2201,1.2213,1.2213,1.2226,1.2228,1.2233,1.2245,1.2246,1.2243,1.2244,1.2244,1.2245,0,0,0,0,0,0,0,1.2155,1.2157,1.2181,1.2181,1.2182,1.2187,1.219,1.2198,1.2213,1.2202,1.2204,1.2206,1.2227,1.2232,1.2233,1.2247,1.2243,1.2244,1.2245,1.2245,1.2264,1.2264,0,0,0,0,0,0,1.2152,1.2156,1.218,1.2182,1.217,1.2187,1.219,1.2195,1.2213,1.2216,1.2206,1.2207,1.223,1.2232,1.2234,1.224,1.2244,1.2245,1.2246,1.2264,1.2264,1.2264,0,0,0,0,0,0,1.2151,1.2154,1.2179,1.2169,1.2173,1.2188,1.2193,1.2196,1.22,1.2216,1.2219,1.2208,1.223,1.2233,1.2242,1.2241,1.2246,1.2246,1.2264,1.2264,1.2264,1.2251,0,0,0,0,0,0,1.215,1.2153,1.2154,1.2169,1.2174,1.2185,1.2193,1.2196,1.2202,1.2203,1.2218,1.2221,1.2231,1.224,1.2242,1.2243,1.2247,1.2264,1.2264,1.2264,1.2252,1.2251,1.225,0,0,0,0,0,1.2149,1.2149,1.2154,1.2157,1.2175,1.2185,1.2188,1.2199,1.2202,1.2203,1.2213,1.222,1.2241,1.2241,1.2244,1.2244,1.2264,1.2264,1.2264,1.2252,1.2251,1.225,0,0,0,0,0,0,1.2134,1.2152,1.2157,1.2163,1.2172,1.2188,1.219,1.2197,1.2206,1.2207,1.222,1.2224,1.2231,1.2238,1.2238,1.2249,1.2254,1.2254,1.2244,1.2243,1.2242,1.2239,1.2248,0,0,0,0,0,1.2131,1.2138,1.2153,1.2157,1.2162,1.2175,1.218,1.2187,1.2198,1.2202,1.2213,1.2223,1.2233,1.2238,1.2247,1.2253,1.2257,1.2255,1.2254,1.2253,1.2253,1.2258,1.2258,1.2264,1.2264,1.2264,0,0,1.2126,1.2137,1.214,1.2154,1.2163,1.217,1.2178,1.2185,1.2191,1.2204,1.2212,1.222,1.2233,1.2241,1.2244,1.2247,1.2253,1.2253,1.2252,1.2253,1.2258,1.2257,1.2257,1.2264,1.2264,1.2264,0,0,1.212,1.2128,1.2132,1.2141,1.2154,1.2163,1.2164,1.2179,1.2185,1.2194,1.2204,1.2211,1.2226,1.2235,1.2241,1.224,1.2247,1.2243,1.2237,1.2242,1.2241,1.2241,1.2241,1.2241,1.2243,1.2243,1.2243,0,1.2111,1.2122,1.2134,1.214,1.2147,1.2159,1.2164,1.2172,1.2187,1.2191,1.2194,1.2214,1.2223,1.2233,1.2233,1.2238,1.224,1.2241,1.224,1.224,1.224,1.224,1.224,1.2242,1.2242,1.2242,1.2242,0,1.2112,1.2119,1.2121,1.2135,1.2142,1.2148,1.2161,1.2167,1.2174,1.2183,1.2193,1.2205,1.2217,1.222,1.2227,1.2231,1.2233,1.2238,1.2243,1.2239,1.2239,1.2239,1.2241,1.2241,1.2242,1.2242,0,0,1.2095,1.2117,1.2118,1.2125,1.214,1.2147,1.2154,1.2165,1.217,1.218,1.2187,1.22,1.2205,1.2213,1.2221,1.2225,1.2224,1.223,1.2231,1.2229,1.223,1.2226,1.2226,1.2229,1.2229,1.2229,1.2229,0,1.2092,1.2104,1.2115,1.2124,1.2131,1.2144,1.215,1.216,1.2169,1.2178,1.2188,1.2197,1.2203,1.2208,1.2212,1.2223,1.2225,1.2223,1.2236,1.2236,1.2232,1.2226,1.2221,1.222,1.2229,1.2229,1.2229,0,1.2088,1.2098,1.2107,1.2123,1.2127,1.2132,1.2144,1.2152,1.2164,1.2171,1.218,1.2189,1.2198,1.2202,1.2215,1.2214,1.222,1.2226,1.2226,1.2228,1.2232,1.2227,1.222,1.222,1.223,1.223,1.223,0,1.2076,1.2092,1.2099,1.2105,1.2124,1.2127,1.2135,1.2148,1.2155,1.2166,1.2171,1.2183,1.2189,1.2199,1.2211,1.2213,1.2223,1.2228,1.2229,1.2228,1.223,1.2229,1.2224,1.2234,1.2234,1.2234,1.2234,0,1.207,1.2075,1.2094,1.2099,1.2105,1.2119,1.2125,1.2134,1.2146,1.2154,1.2166,1.2172,1.2189,1.2198,1.2208,1.2217,1.222,1.2226,1.2228,1.2225,1.2224,1.2228,1.2229,1.2234,1.2234,1.2234,1.2234,0,1.2056,1.2069,1.2079,1.2096,1.2101,1.2105,1.212,1.2125,1.2136,1.2145,1.2148,1.2164,1.2175,1.2189,1.2205,1.2212,1.222,1.2224,1.2216,1.2217,1.2217,1.2217,1.2214,1.2215,1.2224,1.2224,1.2224,0,1.2051,1.2056,1.2074,1.208,1.2087,1.2096,1.2103,1.2118,1.2125,1.2141,1.2144,1.2157,1.2167,1.2185,1.2198,1.2211,1.2215,1.2213,1.2217,1.2213,1.2215,1.2215,1.2216,1.2212,1.2212,1.2212,1.2212,0,1.2041,1.2048,1.2057,1.207,1.2078,1.2088,1.2099,1.2103,1.212,1.2128,1.2139,1.2148,1.2164,1.2176,1.2191,1.22,1.2209,1.2211,1.2212,1.2207,1.2202,1.2205,1.2213,1.2211,1.2211,1.2211,1.2211,1.2211,1.2032,1.2037,1.2051,1.2061,1.2071,1.2081,1.2088,1.2099,1.2109,1.2123,1.2132,1.2143,1.2158,1.2178,1.2187,1.2197,1.22,1.2201,1.2201,1.2201,1.22,1.2201,1.22,1.22,1.22,1.22,1.22,0,1.2023,1.2033,1.2042,1.2057,1.2066,1.2074,1.2087,1.2094,1.2104,1.2116,1.2127,1.2141,1.2153,1.2168,1.2182,1.2187,1.2192,1.219,1.219,1.2192,1.2197,1.2195,1.2186,1.2186,1.2186,1.2186,1.2186,1.2186,1.2019,1.2027,1.2036,1.205,1.206,1.2071,1.2078,1.2088,1.2098,1.2114,1.2124,1.2134,1.2148,1.2163,1.2175,1.2179,1.2183,1.2181,1.2186,1.219,1.2191,1.2192,1.2191,1.2182,1.2182,1.2181,1.2181,1.2181]},{"header":{"parameterUnit":"m.s-1","parameterCategory":1,"la1":30.2991,"la2":30.254,"lo1":-89.0895,"lo2":-89.0444,"dy":0.0017,"dx":0.0017,"nx":28,"ny":28,"refTime":"2024-11-30T03:00:00:Z","depth":0,"parameterNumber":3,"parameterNumberName":"V-component_of_WINDS"},"data":[0,0,0,0,0,0,0,0,0,0,0,0,0,0,0,0,0,0,0,0,0,0,0,0,0,0,0,0,0,0,0,0,0,0,0,0,0,0,0,0,0,0,0,0,0,0,0,0,0,0,0,0,0,0,0,0,0,0,-1.2009,-1.2009,0,-1.2054,-1.2054,-1.2055,-1.2085,-1.2085,-1.2086,-1.2086,-1.2131,-1.2132,-1.2133,0,0,0,0,0,0,0,0,0,0,0,0,0,-1.195,-1.1951,-1.2009,-1.201,-1.201,-1.2054,-1.2054,-1.2055,-1.2085,-1.2085,-1.2086,-1.2086,-1.213,-1.2132,-1.2133,0,0,0,0,0,0,0,0,0,0,0,0,0,-1.1983,-1.1951,-1.2009,-1.203,-1.2033,-1.2054,-1.2054,-1.2055,-1.2085,-1.2085,-1.2086,-1.2086,-1.213,-1.2131,-1.2133,-1.2136,0,0,-1.2137,-1.2138,0,0,0,0,0,0,0,0,-1.1981,-1.1985,-1.2027,-1.2029,-1.2032,-1.2064,-1.205,-1.2082,-1.2085,-1.2065,-1.2086,-1.2086,-1.2108,-1.2112,-1.2119,-1.2138,-1.214,-1.2138,-1.2138,-1.2139,-1.214,0,0,0,0,0,0,0,-1.1979,-1.1984,-1.2027,-1.2027,-1.203,-1.2038,-1.2043,-1.2056,-1.2084,-1.2067,-1.2069,-1.2074,-1.211,-1.2118,-1.212,-1.214,-1.2138,-1.2139,-1.214,-1.214,-1.2165,-1.2165,0,0,0,0,0,0,-1.1973,-1.1981,-1.2025,-1.2028,-1.2007,-1.2039,-1.2044,-1.2053,-1.2084,-1.2089,-1.2074,-1.2075,-1.2115,-1.2119,-1.2122,-1.2129,-1.2139,-1.2141,-1.2141,-1.2165,-1.2165,-1.2165,0,0,0,0,0,0,-1.1972,-1.1977,-1.2023,-1.2005,-1.2012,-1.2039,-1.2049,-1.2054,-1.2062,-1.209,-1.2095,-1.2077,-1.2115,-1.212,-1.2133,-1.2131,-1.2141,-1.2143,-1.2166,-1.2165,-1.2165,-1.2141,0,0,0,0,0,0,-1.197,-1.1976,-1.1977,-1.2005,-1.2013,-1.2033,-1.2049,-1.2055,-1.2065,-1.2067,-1.2094,-1.2098,-1.2116,-1.213,-1.2134,-1.2133,-1.2144,-1.2166,-1.2166,-1.2165,-1.2142,-1.214,-1.2138,0,0,0,0,0,-1.1968,-1.1968,-1.1977,-1.1982,-1.2015,-1.2033,-1.2037,-1.2058,-1.2064,-1.2066,-1.2084,-1.2098,-1.213,-1.2131,-1.2136,-1.2135,-1.2166,-1.2166,-1.2165,-1.2143,-1.214,-1.2138,0,0,0,0,0,0,-1.1938,-1.1972,-1.1982,-1.1992,-1.2009,-1.2038,-1.204,-1.2054,-1.2069,-1.2071,-1.2095,-1.2101,-1.2111,-1.2124,-1.2125,-1.214,-1.215,-1.215,-1.2131,-1.2129,-1.2127,-1.2124,-1.2145,0,0,0,0,0,-1.1933,-1.1945,-1.1974,-1.1979,-1.1987,-1.2012,-1.2021,-1.2035,-1.2054,-1.2062,-1.208,-1.2098,-1.2113,-1.2121,-1.2136,-1.2144,-1.2151,-1.2146,-1.2144,-1.2142,-1.2142,-1.2149,-1.2147,-1.2163,-1.2163,-1.2163,0,0,-1.1922,-1.1942,-1.1948,-1.1974,-1.1989,-1.2001,-1.2018,-1.203,-1.2039,-1.2063,-1.2077,-1.2091,-1.2113,-1.2123,-1.2129,-1.2134,-1.2139,-1.2141,-1.214,-1.2141,-1.2148,-1.2147,-1.2145,-1.2163,-1.2163,-1.2163,0,0,-1.1908,-1.1924,-1.1931,-1.1946,-1.197,-1.1986,-1.1988,-1.2015,-1.2026,-1.204,-1.2059,-1.207,-1.2094,-1.2109,-1.212,-1.2114,-1.2127,-1.2118,-1.2107,-1.2113,-1.2112,-1.2111,-1.211,-1.2109,-1.2118,-1.2118,-1.2118,0,-1.1891,-1.191,-1.1933,-1.1944,-1.1955,-1.1979,-1.1987,-1.2,-1.2027,-1.2034,-1.204,-1.2072,-1.2088,-1.2103,-1.2102,-1.2109,-1.2113,-1.2115,-1.211,-1.211,-1.2109,-1.2108,-1.2108,-1.2116,-1.2117,-1.2117,-1.2117,0,-1.1889,-1.1902,-1.1905,-1.1931,-1.1943,-1.1952,-1.1977,-1.1986,-1.2,-1.2016,-1.2031,-1.2051,-1.2071,-1.2076,-1.2088,-1.2093,-1.2096,-1.2106,-1.2116,-1.2106,-1.2106,-1.2106,-1.2115,-1.2115,-1.2115,-1.2116,0,0,-1.1858,-1.1897,-1.1898,-1.1911,-1.1939,-1.195,-1.196,-1.1981,-1.1988,-1.2006,-1.2017,-1.2037,-1.2047,-1.2059,-1.2074,-1.208,-1.2075,-1.2089,-1.209,-1.2087,-1.2083,-1.2076,-1.2075,-1.2084,-1.2084,-1.2084,-1.2082,0,-1.1849,-1.187,-1.1891,-1.1905,-1.1918,-1.1941,-1.195,-1.1969,-1.1985,-1.1998,-1.2016,-1.203,-1.2042,-1.2049,-1.2056,-1.2074,-1.2075,-1.2075,-1.2095,-1.2095,-1.2089,-1.2075,-1.2067,-1.2063,-1.2082,-1.2082,-1.2082,0,-1.1841,-1.1859,-1.1874,-1.1903,-1.1909,-1.1917,-1.1938,-1.1951,-1.1973,-1.1984,-1.1998,-1.2015,-1.2028,-1.2037,-1.2056,-1.2055,-1.2065,-1.2075,-1.2076,-1.2079,-1.2088,-1.2078,-1.2063,-1.2062,-1.2081,-1.2081,-1.2081,0,-1.1818,-1.1846,-1.1859,-1.1869,-1.1902,-1.1908,-1.1922,-1.1944,-1.1955,-1.1974,-1.1982,-1.2001,-1.2012,-1.2026,-1.2048,-1.2052,-1.2065,-1.2075,-1.2076,-1.2075,-1.2077,-1.2077,-1.2064,-1.2082,-1.2082,-1.2082,-1.2082,0,-1.1807,-1.1815,-1.185,-1.1858,-1.1868,-1.1893,-1.1903,-1.1919,-1.1939,-1.1951,-1.1971,-1.1982,-1.201,-1.2024,-1.2041,-1.2055,-1.2059,-1.2069,-1.2074,-1.2068,-1.2066,-1.2074,-1.2076,-1.2082,-1.2082,-1.2082,-1.2082,0,-1.1783,-1.1806,-1.1822,-1.1852,-1.186,-1.1867,-1.1893,-1.1902,-1.192,-1.1935,-1.194,-1.1967,-1.1985,-1.2008,-1.2033,-1.2045,-1.2057,-1.2063,-1.205,-1.2052,-1.2052,-1.2052,-1.2043,-1.2044,-1.2061,-1.2061,-1.2061,0,-1.1774,-1.1782,-1.1813,-1.1823,-1.1837,-1.1852,-1.1864,-1.1889,-1.1901,-1.1927,-1.1933,-1.1953,-1.197,-1.1998,-1.202,-1.204,-1.2047,-1.2043,-1.205,-1.2044,-1.2048,-1.2048,-1.2049,-1.2041,-1.2041,-1.2041,-1.204,0,-1.1757,-1.1769,-1.1785,-1.1806,-1.182,-1.1838,-1.1856,-1.1863,-1.1892,-1.1904,-1.1923,-1.1937,-1.1963,-1.1983,-1.2006,-1.202,-1.2035,-1.2038,-1.2039,-1.2034,-1.2026,-1.2031,-1.2046,-1.2038,-1.2038,-1.2038,-1.2039,-1.2039,-1.1742,-1.175,-1.1774,-1.1792,-1.1809,-1.1826,-1.1837,-1.1856,-1.1872,-1.1896,-1.191,-1.1928,-1.1952,-1.1984,-1.1998,-1.2013,-1.2019,-1.202,-1.2021,-1.2021,-1.202,-1.2023,-1.2018,-1.2018,-1.2018,-1.2018,-1.2018,0,-1.1727,-1.1743,-1.176,-1.1786,-1.1801,-1.1814,-1.1836,-1.1847,-1.1863,-1.1884,-1.1901,-1.1923,-1.1943,-1.1967,-1.1988,-1.1996,-1.2004,-1.2001,-1.2001,-1.2004,-1.2013,-1.201,-1.1995,-1.1995,-1.1995,-1.1995,-1.1995,-1.1995,-1.1721,-1.1736,-1.175,-1.1774,-1.1791,-1.181,-1.1821,-1.1838,-1.1854,-1.1879,-1.1895,-1.1911,-1.1933,-1.1957,-1.1976,-1.1982,-1.1989,-1.1985,-1.1994,-1.2001,-1.2003,-1.2005,-1.2003,-1.1986,-1.1986,-1.1984,-1.1984,-1.1984]}]]